KLM42P EDDH-EDDB

Flight info

Callsign KLM42P
Flight time 0h 39m
Altitude 23000
Route RAMAR6G/33 RAMAR Z998 PITEN L619 VIBIS T209 OGBER OGB24L
Aircraft A20N/M-VGDW/C

Departure

Time 2026-05-07 21:30
Airport Hamburg Helmut Schmidt Airport (EDDH)

Arrival

Time 2026-05-07 22:09
Airport Berlin Brandenburg Airport (EDDB)
Time Latitude Longitude Altitude Speed Heading
2026-05-07 21:10 53.63208 10.00362 49 ft 0 kts 86°
2026-05-07 21:18 53.63208 10.00351 49 ft 1 kts 86°
2026-05-07 21:19 53.63207 10.00335 49 ft 2 kts 86°
2026-05-07 21:19 53.63206 10.00307 49 ft 3 kts 86°
2026-05-07 21:19 53.63207 10.00270 49 ft 3 kts 112°
2026-05-07 21:19 53.63219 10.00244 43 ft 2 kts 155°
2026-05-07 21:20 53.63223 10.00241 47 ft 0 kts 167°
2026-05-07 21:22 53.63219 10.00242 46 ft 3 kts 167°
2026-05-07 21:22 53.63182 10.00252 48 ft 8 kts 172°
2026-05-07 21:22 53.63107 10.00261 47 ft 14 kts 178°
2026-05-07 21:22 53.63022 10.00212 44 ft 12 kts 213°
2026-05-07 21:23 53.62952 10.00134 45 ft 2 kts 211°
2026-05-07 21:23 53.62940 10.00122 45 ft 5 kts 211°
2026-05-07 21:23 53.62908 10.00073 44 ft 6 kts 248°
2026-05-07 21:23 53.62877 10.00024 45 ft 7 kts 189°
2026-05-07 21:24 53.62831 10.00075 44 ft 10 kts 143°
2026-05-07 21:24 53.62809 10.00097 44 ft 1 kts 157°
2026-05-07 21:24 53.62803 10.00101 44 ft 0 kts 157°
2026-05-07 21:24 53.62801 10.00104 44 ft 2 kts 151°
2026-05-07 21:25 53.62773 10.00131 44 ft 7 kts 151°
2026-05-07 21:25 53.62712 10.00187 43 ft 12 kts 152°
2026-05-07 21:25 53.62636 10.00252 42 ft 11 kts 153°
2026-05-07 21:25 53.62578 10.00239 42 ft 0 kts 237°
2026-05-07 21:26 53.62571 10.00211 42 ft 5 kts 244°
2026-05-07 21:26 53.62567 10.00200 42 ft 0 kts 245°
2026-05-07 21:26 53.62567 10.00199 42 ft 1 kts 245°
2026-05-07 21:27 53.62558 10.00166 41 ft 6 kts 245°
2026-05-07 21:27 53.62540 10.00079 42 ft 10 kts 265°
2026-05-07 21:27 53.62568 10.00002 43 ft 0 kts 331°
2026-05-07 21:29 53.62652 9.99929 44 ft 44 kts 333°
2026-05-07 21:30 53.63136 9.99512 48 ft 109 kts 333°
2026-05-07 21:30 53.63963 9.98797 93 ft 152 kts 334°
2026-05-07 21:30 53.64901 9.97988 657 ft 153 kts 335°
2026-05-07 21:30 53.65863 9.97154 1201 ft 159 kts 336°
2026-05-07 21:31 53.66854 9.96271 1761 ft 163 kts 335°
2026-05-07 21:31 53.67873 9.95342 2251 ft 172 kts 335°
2026-05-07 21:31 53.69057 9.94611 2589 ft 191 kts 353°
2026-05-07 21:31 53.70430 9.94541 3023 ft 209 kts
2026-05-07 21:32 53.71959 9.94665 3604 ft 226 kts
2026-05-07 21:32 53.73387 9.95528 4746 ft 215 kts 39°
2026-05-07 21:32 53.74330 9.97434 5759 ft 214 kts 65°
2026-05-07 21:32 53.75000 9.99785 6485 ft 232 kts 65°
2026-05-07 21:33 53.75724 10.02367 7023 ft 255 kts 65°
2026-05-07 21:33 53.76513 10.05155 7719 ft 268 kts 65°
2026-05-07 21:33 53.77335 10.08027 8663 ft 274 kts 65°
2026-05-07 21:33 53.78176 10.10950 9611 ft 280 kts 64°
2026-05-07 21:34 53.79042 10.13958 10457 ft 289 kts 64°
2026-05-07 21:34 53.79954 10.17129 10879 ft 312 kts 64°
2026-05-07 21:34 53.80932 10.20532 11229 ft 334 kts 64°
2026-05-07 21:34 53.81959 10.24113 11988 ft 340 kts 64°
2026-05-07 21:35 53.82997 10.27740 12824 ft 346 kts 64°
2026-05-07 21:35 53.83983 10.31435 13655 ft 351 kts 71°
2026-05-07 21:35 53.84441 10.35514 14427 ft 356 kts 88°
2026-05-07 21:35 53.84190 10.39698 15169 ft 360 kts 103°
2026-05-07 21:36 53.83617 10.43850 15942 ft 364 kts 103°
2026-05-07 21:36 53.83028 10.48039 16691 ft 368 kts 106°
2026-05-07 21:36 53.82011 10.52035 17404 ft 372 kts 123°
2026-05-07 21:36 53.80499 10.55615 18150 ft 376 kts 127°
2026-05-07 21:37 53.78927 10.59175 18811 ft 380 kts 127°
2026-05-07 21:37 53.77321 10.62756 19462 ft 384 kts 128°
2026-05-07 21:37 53.75697 10.66357 20100 ft 387 kts 128°
2026-05-07 21:37 53.74052 10.69994 20740 ft 391 kts 128°
2026-05-07 21:38 53.72394 10.73657 21375 ft 394 kts 128°
2026-05-07 21:38 53.70718 10.77355 21976 ft 398 kts 128°
2026-05-07 21:38 53.69034 10.81069 22603 ft 402 kts 128°
2026-05-07 21:38 53.67320 10.84843 23043 ft 406 kts 128°
2026-05-07 21:39 53.65598 10.88630 23148 ft 407 kts 128°
2026-05-07 21:39 53.63877 10.92407 23147 ft 406 kts 128°
2026-05-07 21:39 53.62152 10.96188 23146 ft 407 kts 128°
2026-05-07 21:39 53.60427 10.99964 23143 ft 407 kts 128°
2026-05-07 21:40 53.58699 11.03741 23148 ft 407 kts 128°
2026-05-07 21:40 53.56969 11.07515 23141 ft 407 kts 128°
2026-05-07 21:40 53.55238 11.11286 23142 ft 407 kts 128°
2026-05-07 21:40 53.53506 11.15051 23141 ft 407 kts 128°
2026-05-07 21:41 53.51773 11.18816 23142 ft 407 kts 128°
2026-05-07 21:41 53.50037 11.22580 23140 ft 408 kts 128°
2026-05-07 21:41 53.48300 11.26342 23140 ft 408 kts 128°
2026-05-07 21:41 53.46561 11.30104 23142 ft 407 kts 128°
2026-05-07 21:42 53.44822 11.33857 23142 ft 408 kts 128°
2026-05-07 21:42 53.43080 11.37610 23141 ft 408 kts 128°
2026-05-07 21:42 53.41336 11.41361 23146 ft 408 kts 128°
2026-05-07 21:42 53.39594 11.45106 23143 ft 408 kts 128°
2026-05-07 21:43 53.37849 11.48848 23142 ft 408 kts 128°
2026-05-07 21:43 53.36099 11.52599 23145 ft 408 kts 128°
2026-05-07 21:43 53.34348 11.56342 23141 ft 408 kts 128°
2026-05-07 21:43 53.32599 11.60075 23145 ft 408 kts 129°
2026-05-07 21:44 53.30872 11.63751 23136 ft 408 kts 129°
2026-05-07 21:44 53.29119 11.67480 23135 ft 407 kts 128°
2026-05-07 21:44 53.27346 11.71254 23141 ft 408 kts 128°
2026-05-07 21:44 53.25595 11.74975 23140 ft 408 kts 128°
2026-05-07 21:45 53.23842 11.78695 23144 ft 407 kts 128°
2026-05-07 21:45 53.22087 11.82413 23139 ft 407 kts 128°
2026-05-07 21:45 53.20335 11.86121 23138 ft 407 kts 128°
2026-05-07 21:45 53.18578 11.89830 23137 ft 408 kts 128°
2026-05-07 21:46 53.16818 11.93540 23136 ft 408 kts 129°
2026-05-07 21:46 53.15058 11.97242 23137 ft 408 kts 129°
2026-05-07 21:46 53.13317 12.00901 23135 ft 408 kts 129°
2026-05-07 21:46 53.11553 12.04597 23133 ft 408 kts 129°
2026-05-07 21:47 53.09790 12.08287 23135 ft 407 kts 129°
2026-05-07 21:47 53.08031 12.11969 22953 ft 405 kts 129°
2026-05-07 21:47 53.06284 12.15617 22516 ft 402 kts 129°
2026-05-07 21:47 53.04545 12.19246 21939 ft 400 kts 128°
2026-05-07 21:48 53.02817 12.22846 21359 ft 396 kts 128°
2026-05-07 21:48 53.01106 12.26403 20783 ft 393 kts 129°
2026-05-07 21:48 52.99400 12.29929 20193 ft 390 kts 130°
2026-05-07 21:48 52.97551 12.33199 19627 ft 387 kts 137°
2026-05-07 21:49 52.95489 12.36033 19075 ft 384 kts 144°
2026-05-07 21:49 52.93263 12.38462 18516 ft 381 kts 147°
2026-05-07 21:49 52.91045 12.40828 17925 ft 378 kts 147°
2026-05-07 21:49 52.88847 12.43188 17352 ft 375 kts 147°
2026-05-07 21:50 52.86668 12.45530 16795 ft 371 kts 147°
2026-05-07 21:50 52.84511 12.47847 16243 ft 368 kts 147°
2026-05-07 21:50 52.82375 12.50136 15711 ft 365 kts 147°
2026-05-07 21:50 52.80249 12.52411 15176 ft 362 kts 147°
2026-05-07 21:51 52.78144 12.54660 14671 ft 359 kts 148°
2026-05-07 21:51 52.76059 12.56881 14163 ft 356 kts 148°
2026-05-07 21:51 52.73988 12.59088 13638 ft 353 kts 147°
2026-05-07 21:51 52.71927 12.61283 13055 ft 351 kts 147°
2026-05-07 21:52 52.69884 12.63456 12515 ft 348 kts 147°
2026-05-07 21:52 52.67884 12.65581 11983 ft 346 kts 147°
2026-05-07 21:52 52.65866 12.67721 11460 ft 343 kts 147°
2026-05-07 21:52 52.63867 12.69840 10938 ft 341 kts 147°
2026-05-07 21:53 52.61878 12.71856 10680 ft 331 kts 153°
2026-05-07 21:53 52.59689 12.72969 10170 ft 329 kts 175°
2026-05-07 21:53 52.57459 12.72721 10038 ft 315 kts 190°
2026-05-07 21:53 52.55343 12.72105 9905 ft 302 kts 190°
2026-05-07 21:54 52.53317 12.71494 9709 ft 292 kts 191°
2026-05-07 21:54 52.51333 12.70884 9306 ft 289 kts 191°
2026-05-07 21:54 52.49364 12.70275 8900 ft 287 kts 191°
2026-05-07 21:54 52.47407 12.69668 8509 ft 285 kts 191°
2026-05-07 21:55 52.45502 12.69077 8124 ft 283 kts 190°
2026-05-07 21:55 52.44183 12.68669 7862 ft 282 kts 190°
2026-05-07 21:55 52.42260 12.68074 7479 ft 280 kts 190°
2026-05-07 21:55 52.40354 12.67485 7109 ft 278 kts 190°
2026-05-07 21:56 52.38461 12.66902 6742 ft 276 kts 190°
2026-05-07 21:56 52.36602 12.66329 6587 ft 266 kts 189°
2026-05-07 21:56 52.34827 12.65782 6487 ft 254 kts 189°
2026-05-07 21:56 52.33128 12.65259 6357 ft 243 kts 189°
2026-05-07 21:57 52.31480 12.64754 6144 ft 238 kts 189°
2026-05-07 21:57 52.29842 12.64253 6119 ft 243 kts 189°
2026-05-07 21:57 52.28189 12.63748 6108 ft 241 kts 189°
2026-05-07 21:57 52.26543 12.63244 6106 ft 241 kts 189°
2026-05-07 21:58 52.24884 12.63077 6111 ft 239 kts 171°
2026-05-07 21:58 52.23316 12.63818 6110 ft 238 kts 156°
2026-05-07 21:58 52.21767 12.64864 6109 ft 238 kts 156°
2026-05-07 21:58 52.20232 12.65881 6110 ft 238 kts 156°
2026-05-07 21:59 52.18882 12.67302 6115 ft 235 kts 129°
2026-05-07 21:59 52.18163 12.69646 6107 ft 233 kts 98°
2026-05-07 21:59 52.18312 12.72233 6114 ft 233 kts 69°
2026-05-07 21:59 52.18927 12.74680 6109 ft 233 kts 67°
2026-05-07 22:00 52.19545 12.77115 6110 ft 232 kts 68°
2026-05-07 22:00 52.20151 12.79541 5976 ft 231 kts 68°
2026-05-07 22:00 52.20749 12.81967 5689 ft 230 kts 68°
2026-05-07 22:00 52.21342 12.84388 5377 ft 230 kts 67°
2026-05-07 22:01 52.21988 12.86764 5078 ft 229 kts 66°
2026-05-07 22:01 52.22619 12.89137 4781 ft 227 kts 67°
2026-05-07 22:01 52.23207 12.91525 4477 ft 227 kts 68°
2026-05-07 22:01 52.23777 12.93915 4179 ft 226 kts 69°
2026-05-07 22:02 52.24342 12.96284 3998 ft 221 kts 69°
2026-05-07 22:02 52.24909 12.98659 3984 ft 226 kts 69°
2026-05-07 22:02 52.25476 13.01037 3984 ft 224 kts 69°
2026-05-07 22:02 52.26043 13.03414 3987 ft 225 kts 69°
2026-05-07 22:03 52.26610 13.05792 3985 ft 225 kts 69°
2026-05-07 22:03 52.27177 13.08171 3988 ft 225 kts 69°
2026-05-07 22:03 52.27744 13.10552 3990 ft 225 kts 69°
2026-05-07 22:03 52.28310 13.12926 3987 ft 225 kts 69°
2026-05-07 22:04 52.28869 13.15273 3996 ft 225 kts 69°
2026-05-07 22:04 52.29436 13.17655 3994 ft 225 kts 69°
2026-05-07 22:04 52.30010 13.20066 3916 ft 225 kts 69°
2026-05-07 22:04 52.30577 13.22446 3614 ft 225 kts 69°
2026-05-07 22:05 52.31135 13.24793 3308 ft 224 kts 69°
2026-05-07 22:05 52.31695 13.27149 2991 ft 221 kts 69°
2026-05-07 22:05 52.32251 13.29486 2693 ft 218 kts 69°
2026-05-07 22:05 52.32795 13.31772 2393 ft 212 kts 69°
2026-05-07 22:06 52.33317 13.33970 2097 ft 201 kts 69°
2026-05-07 22:06 52.33798 13.35995 1826 ft 181 kts 68°
2026-05-07 22:06 52.34228 13.37803 1604 ft 162 kts 68°
2026-05-07 22:06 52.34619 13.39451 1396 ft 151 kts 68°
2026-05-07 22:07 52.34983 13.40984 1187 ft 139 kts 68°
2026-05-07 22:07 52.35326 13.42428 988 ft 133 kts 68°
2026-05-07 22:07 52.35652 13.43798 804 ft 129 kts 67°
2026-05-07 22:07 52.35978 13.45167 632 ft 129 kts 67°
2026-05-07 22:08 52.36305 13.46546 454 ft 131 kts 68°
2026-05-07 22:08 52.36633 13.47939 263 ft 131 kts 67°
2026-05-07 22:08 52.36954 13.49326 163 ft 134 kts 65°
2026-05-07 22:08 52.37328 13.50870 160 ft 137 kts 68°
2026-05-07 22:09 52.37523 13.51680 156 ft 58 kts 67°
2026-05-07 22:09 52.37670 13.52296 161 ft 58 kts 69°
2026-05-07 22:09 52.37702 13.52601 167 ft 20 kts 127°
2026-05-07 22:09 52.37592 13.52684 165 ft 19 kts 158°
2026-05-07 22:10 52.37463 13.52710 165 ft 19 kts 192°
2026-05-07 22:10 52.37395 13.52539 162 ft 20 kts 246°
2026-05-07 22:10 52.37340 13.52315 161 ft 23 kts 248°
2026-05-07 22:10 52.37279 13.52061 161 ft 25 kts 249°
2026-05-07 22:11 52.37217 13.51791 162 ft 26 kts 249°
2026-05-07 22:11 52.37141 13.51513 160 ft 25 kts 225°
2026-05-07 22:11 52.37037 13.51431 158 ft 15 kts 244°
2026-05-07 22:11 52.36993 13.51248 155 ft 20 kts 249°
2026-05-07 22:12 52.36938 13.51021 155 ft 22 kts 248°
2026-05-07 22:12 52.36879 13.50772 155 ft 24 kts 248°
2026-05-07 22:12 52.36816 13.50509 156 ft 26 kts 251°
2026-05-07 22:12 52.36744 13.50246 155 ft 21 kts 217°
2026-05-07 22:13 52.36655 13.50267 153 ft 14 kts 158°
2026-05-07 22:13 52.36574 13.50349 153 ft 10 kts 106°
2026-05-07 22:13 52.36602 13.50427 155 ft 9 kts 51°
2026-05-07 22:13 52.36619 13.50474 156 ft 0 kts 70°